Regional Weather Roundup
Issued by NWS

Home | Current Version | Previous Version | Graphics & Text | Print | Product List | Glossary On
Versions: 1 2 3 4 5 6 7 8 9 10 11 12 13 14 15 16 17 18 19 20 21 22 23 24 25 26 27 28 29 30 31 32 33 34 35 36 37 38 39 40 41 42 43 44 45 46 47 48 49 50
687
ASUS44 KLIX 292101
RWRLA
LOUISIANA WEATHER ROUNDUP
NATIONAL WEATHER SERVICE NEW ORLEANS LA
400 PM CDT MON SEP 29 2014

NOTE: "FAIR" INDICATES FEW OR NO CLOUDS BELOW 12,000 FEET WITH NO
      SIGNIFICANT WEATHER AND/OR OBSTRUCTIONS TO VISIBILITY.
      SKY/WX - SKY CONDITION AND SIGNIFICANT WEATHER.
      TMP - AIR TEMPERATURE.    DP   - DEWPOINT TEMPERATURE.
      RH  - RELATIVE HUMIDITY.  PRES - PRESSURE.
      HX  - HEAT INDEX.         WCI  - WIND CHILL INDEX.

*  THESE STATIONS ARE NOT NWS OR FAA STATIONS AND ARE NOT UNDER
   NWS QUALITY CONTROL.

LAZ040-048-061>063-065-066-069-292200-
SOUTHEAST LOUISIANA

CITY           SKY/WX    TMP DP  RH WIND       PRES   REMARKS
N.O. AUDUBON   NOT AVBL
N.O. INTL ARPT MOSUNNY   84  70  62 NE7       29.86F
N.O. LAKEFRONT MOSUNNY   81  72  74 NW7       29.87F
N.O. DOWNTOWN* FAIR      82  68  61 N3        29.87F
SLIDELL        PTSUNNY   82  71  69 N6        29.86S
BATON ROUGE    MOSUNNY   86  72  62 NE10      29.86F
BOOTHVILLE     CLOUDY    80  74  81 N7        29.87S
BELLE CHASSE   MOSUNNY   85  70  60 N7        29.86F
BOGALUSA*        N/A     87  70  57 NE5       29.88F
GALLIANO*      NOT AVBL
NEW ROADS*     FAIR      85  72  64 NE7       29.87S
GONZALES*      CLOUDY    83  76  79 E5        29.86S
HAMMOND*       NOT AVBL
HOUMA*         MOSUNNY  N/A N/A N/A NE12      29.86S
PORT FOURCHON* MOCLDY    82  73  74 NE9       29.89S

$$

LAZ041-044-053-054-292200-
SOUTHWEST LOUISIANA

CITY           SKY/WX    TMP DP  RH WIND       PRES   REMARKS
LAKE CHARLES   MOSUNNY   85  71  63 N7        29.86F
LAFAYETTE      MOSUNNY   85  73  67 NE12      29.87S
PATTERSON      CLOUDY    82  73  74 SE6       29.88S
SALT POINT       N/A     84  75  74 VRB5      29.85F
NEW IBERIA     PTSUNNY   87  74  64 NE9       29.87S HX  95
CHENAULT AIRPK NOT AVBL

$$

LAZ027-028-292200-
CENTRAL LOUISIANA

CITY           SKY/WX    TMP DP  RH WIND       PRES   REMARKS
FORT POLK      PTSUNNY   84  73  68 VRB2      29.88F
ALEXANDRIA INT CLOUDY    86  71  60 N9        29.87F
ALEXANDRIA     MOSUNNY   86  71  60 VRB3      29.89F

$$

LAZ001-002-292200-
NORTHWEST LOUISIANA

CITY           SKY/WX    TMP DP  RH WIND       PRES   REMARKS
SHREVEPORT     CLOUDY    85  66  53 E5        29.91F
BARKSDALE AFB  MOSUNNY   86  65  49 E3        29.91F
DTN SHREVEPORT CLOUDY    84  66  54 E5        29.91F

$$

LAZ014-016-292200-
NORTHEAST LOUISIANA

CITY           SKY/WX    TMP DP  RH WIND       PRES   REMARKS
MONROE         PTSUNNY   87  64  46 NE9       29.91F
TALLULAH       SUNNY     89  67  47 N14       29.89F

$$




USA.gov is the U.S. government's official web portal to all federal, state and local government web resources and services.